When you browse on this site, cookies collect data to enhance your experience and personalize the content and advertising you see.
Visit our Privacy Policy to learn more. By continuing to use the site, you agree to this use of cookies and data.
  • In Latvia
  • List of Countries
  • For 7 days
  • Water Temperature
  • Weather Map
  • Weather Widgets
  • user-avatar
    Login

    Hourly Weather Perth

    Today, 1 June, Monday

    Time Temperature Precipitation Wind Pressure Humidity
    00:00 +16°C° 0 mm 1 mps 768 mmHg 82%
    01:00 +15°C° 0 mm 1 mps 768 mmHg 83%
    02:00 +15°C° 0 mm 1 mps 768 mmHg 82%
    03:00 +15°C° 0 mm 1 mps 768 mmHg 83%
    04:00 +15°C° 0 mm 1 mps 768 mmHg 83%
    05:00 +15°C° 0 mm 1 mps 768 mmHg 84%
    06:00 +15°C° 0 mm 1 mps 769 mmHg 83%
    07:00 +14°C° 0 mm 2 mps 769 mmHg 83%
    08:00 +14°C° 0 mm 1 mps 769 mmHg 81%
    09:00 +16°C° 0 mm 1 mps 769 mmHg 74%
    10:00 +18°C° 0 mm 1 mps 769 mmHg 68%
    11:00 +20°C° 0 mm 1 mps 769 mmHg 62%
    12:00 +21°C° 0 mm 1 mps 768 mmHg 59%
    13:00 +21°C° 0 mm 1 mps 768 mmHg 56%
    14:00 +22°C° 0 mm 1 mps 767 mmHg 52%
    15:00 +21°C° 0 mm 1 mps 767 mmHg 55%
    16:00 +20°C° 0 mm 1 mps 767 mmHg 59%
    17:00 +19°C° 0 mm 2 mps 767 mmHg 63%
    18:00 +18°C° 0 mm 2 mps 767 mmHg 65%
    19:00 +17°C° 0 mm 2 mps 768 mmHg 68%
    20:00 +16°C° 0 mm 2 mps 768 mmHg 71%
    21:00 +16°C° 0 mm 2 mps 768 mmHg 71%
    22:00 +16°C° 0 mm 2 mps 768 mmHg 72%
    23:00 +15°C° 0 mm 2 mps 768 mmHg 72%

    Tomorrow, 2 June, Tuesday

    Time Temperature Precipitation Wind Pressure Humidity
    00:00 +15°C° 0 mm 2 mps 768 mmHg 73%
    01:00 +15°C° 0 mm 2 mps 768 mmHg 73%
    02:00 +14°C° 0 mm 2 mps 768 mmHg 73%
    03:00 +14°C° 0 mm 2 mps 768 mmHg 73%
    04:00 +13°C° 0 mm 3 mps 768 mmHg 74%
    05:00 +13°C° 0 mm 3 mps 768 mmHg 74%
    06:00 +13°C° 0 mm 3 mps 768 mmHg 74%
    07:00 +13°C° 0 mm 3 mps 768 mmHg 73%
    08:00 +14°C° 0 mm 4 mps 768 mmHg 73%
    09:00 +15°C° 0 mm 4 mps 768 mmHg 67%
    10:00 +18°C° 0 mm 4 mps 768 mmHg 60%
    11:00 +20°C° 0 mm 4 mps 768 mmHg 54%
    12:00 +20°C° 0 mm 4 mps 767 mmHg 51%
    13:00 +21°C° 0 mm 3 mps 766 mmHg 49%
    14:00 +22°C° 0 mm 3 mps 765 mmHg 46%
    15:00 +21°C° 0 mm 2 mps 766 mmHg 49%
    16:00 +21°C° 0 mm 2 mps 766 mmHg 52%
    17:00 +21°C° 0 mm 1 mps 766 mmHg 55%
    18:00 +19°C° 0 mm 2 mps 766 mmHg 55%
    19:00 +19°C° 0 mm 2 mps 766 mmHg 56%
    20:00 +18°C° 0 mm 3 mps 766 mmHg 56%
    21:00 +18°C° 0 mm 3 mps 766 mmHg 57%
    22:00 +18°C° 0 mm 3 mps 766 mmHg 57%
    23:00 +17°C° 0 mm 4 mps 766 mmHg 57%

    Day after tomorrow, 3 June, Wednesday

    Time Temperature Precipitation Wind Pressure Humidity
    00:00 +17°C° 0 mm 3 mps 766 mmHg 57%
    01:00 +17°C° 0 mm 3 mps 766 mmHg 56%
    02:00 +17°C° 0 mm 3 mps 766 mmHg 56%
    03:00 +17°C° 0 mm 3 mps 766 mmHg 56%
    04:00 +17°C° 0 mm 3 mps 766 mmHg 56%
    05:00 +17°C° 0 mm 3 mps 766 mmHg 56%
    06:00 +17°C° 0 mm 2 mps 766 mmHg 57%
    07:00 +16°C° 0 mm 2 mps 766 mmHg 58%
    08:00 +16°C° 0 mm 2 mps 766 mmHg 59%
    09:00 +18°C° 0 mm 2 mps 766 mmHg 54%
    10:00 +20°C° 0 mm 2 mps 766 mmHg 50%
    11:00 +21°C° 0 mm 2 mps 766 mmHg 45%
    12:00 +23°C° 0 mm 2 mps 766 mmHg 44%
    13:00 +24°C° 0 mm 2 mps 765 mmHg 43%
    14:00 +25°C° 0 mm 2 mps 764 mmHg 41%
    15:00 +24°C° 0 mm 1 mps 764 mmHg 45%
    16:00 +23°C° 0 mm 1 mps 764 mmHg 48%
    17:00 +22°C° 0 mm 1 mps 765 mmHg 52%
    18:00 +21°C° 0 mm 1 mps 765 mmHg 53%
    19:00 +19°C° 0 mm 2 mps 765 mmHg 54%
    20:00 +19°C° 0 mm 2 mps 765 mmHg 55%
    21:00 +18°C° 0 mm 2 mps 765 mmHg 55%
    22:00 +18°C° 0 mm 2 mps 765 mmHg 55%
    23:00 +17°C° 0 mm 2 mps 765 mmHg 55%

    4 June, Thursday

    Time Temperature Precipitation Wind Pressure Humidity
    00:00 +17°C° 0 mm 2 mps 765 mmHg 55%
    01:00 +17°C° 0 mm 2 mps 765 mmHg 56%
    02:00 +17°C° 0 mm 2 mps 765 mmHg 57%
    03:00 +16°C° 0 mm 2 mps 765 mmHg 57%
    04:00 +16°C° 0 mm 2 mps 765 mmHg 57%
    05:00 +16°C° 0 mm 1 mps 765 mmHg 57%
    06:00 +16°C° 0 mm 1 mps 765 mmHg 57%
    07:00 +16°C° 0 mm 1 mps 765 mmHg 57%
    08:00 +18°C° 0 mm 1 mps 766 mmHg 56%
    09:00 +19°C° 0 mm 1 mps 766 mmHg 51%
    10:00 +21°C° 0 mm 1 mps 766 mmHg 47%
    11:00 +23°C° 0 mm 1 mps 766 mmHg 42%
    12:00 +24°C° 0 mm 1 mps 766 mmHg 42%
    13:00 +24°C° 0 mm 1 mps 765 mmHg 42%
    14:00 +25°C° 0 mm 1 mps 765 mmHg 42%
    15:00 +24°C° 0 mm 2 mps 765 mmHg 48%
    16:00 +21°C° 0 mm 2 mps 765 mmHg 54%
    17:00 +20°C° 0 mm 2 mps 765 mmHg 60%
    18:00 +20°C° 0 mm 2 mps 766 mmHg 64%
    19:00 +19°C° 0 mm 2 mps 766 mmHg 68%
    20:00 +19°C° 0 mm 1 mps 767 mmHg 72%
    21:00 +19°C° 0 mm 1 mps 767 mmHg 73%
    22:00 +18°C° 0 mm 1 mps 767 mmHg 73%
    23:00 +18°C° 0 mm 1 mps 767 mmHg 74%

    5 June, Friday

    Time Temperature Precipitation Wind Pressure Humidity
    00:00 +18°C° 0 mm 1 mps 767 mmHg 75%
    01:00 +16°C° 0 mm 1 mps 767 mmHg 76%
    02:00 +16°C° 0 mm 1 mps 767 mmHg 77%
    03:00 +16°C° 0 mm 2 mps 767 mmHg 77%
    04:00 +16°C° 0 mm 2 mps 767 mmHg 76%
    05:00 +15°C° 0 mm 2 mps 767 mmHg 76%
    06:00 +15°C° 0 mm 2 mps 767 mmHg 75%
    07:00 +15°C° 0 mm 2 mps 768 mmHg 73%
    08:00 +15°C° 0 mm 2 mps 768 mmHg 72%
    09:00 +17°C° 0 mm 2 mps 768 mmHg 65%
    10:00 +20°C° 0 mm 1 mps 768 mmHg 58%
    11:00 +22°C° 0 mm 1 mps 768 mmHg 52%
    12:00 +23°C° 0 mm 1 mps 767 mmHg 49%
    13:00 +24°C° 0 mm 1 mps 767 mmHg 46%
    14:00 +25°C° 0 mm 1 mps 766 mmHg 43%
    15:00 +24°C° 0 mm 1 mps 766 mmHg 47%
    16:00 +23°C° 0 mm 1 mps 766 mmHg 51%
    17:00 +22°C° 0 mm 1 mps 766 mmHg 55%
    18:00 +21°C° 0 mm 1 mps 766 mmHg 57%
    19:00 +20°C° 0 mm 1 mps 767 mmHg 59%
    20:00 +20°C° 0 mm 1 mps 767 mmHg 62%
    21:00 +18°C° 0 mm 2 mps 766 mmHg 61%
    22:00 +18°C° 0 mm 2 mps 766 mmHg 61%
    23:00 +18°C° 0 mm 2 mps 766 mmHg 61%

    6 June, Saturday

    Time Temperature Precipitation Wind Pressure Humidity
    00:00 +17°C° 0 mm 2 mps 766 mmHg 62%
    01:00 +17°C° 0 mm 2 mps 766 mmHg 62%
    02:00 +17°C° 0 mm 2 mps 766 mmHg 63%
    03:00 +17°C° 0 mm 3 mps 766 mmHg 64%
    04:00 +16°C° 0 mm 3 mps 765 mmHg 65%
    05:00 +16°C° 0 mm 3 mps 765 mmHg 66%
    06:00 +16°C° 0 mm 3 mps 765 mmHg 67%
    07:00 +16°C° 0 mm 3 mps 765 mmHg 67%
    08:00 +16°C° 0 mm 3 mps 765 mmHg 68%
    09:00 +18°C° 0 mm 3 mps 765 mmHg 64%
    10:00 +19°C° 0 mm 2 mps 765 mmHg 59%
    11:00 +21°C° 0 mm 2 mps 765 mmHg 55%
    12:00 +22°C° 0 mm 1 mps 764 mmHg 52%
    13:00 +23°C° 0 mm 1 mps 764 mmHg 49%
    14:00 +22°C° 0 mm 0 mps 763 mmHg 45%
    15:00 +21°C° 0 mm 0 mps 763 mmHg 48%
    16:00 +21°C° 0 mm 0 mps 763 mmHg 51%
    17:00 +20°C° 0 mm 0 mps 763 mmHg 54%
    18:00 +21°C° 0 mm 1 mps 764 mmHg 56%
    19:00 +21°C° 0 mm 1 mps 764 mmHg 59%
    20:00 +20°C° 0 mm 1 mps 764 mmHg 61%
    21:00 +20°C° 0 mm 1 mps 764 mmHg 62%
    22:00 +19°C° 0 mm 1 mps 764 mmHg 63%
    23:00 +17°C° 0 mm 0 mps 764 mmHg 64%
    Show more